sat.trackr.live / text

‹ back to catalog

ONEWEB-0270

NORAD 48988 · 2021-060X

PAYLOAD ACTIVE UNKNOWN

§ Identity

Operator
Country
UK
Launch date
2021-07-01
Launch site
VOSTO
Launch vehicle
Mass (kg)
RCS (m²)

Purposes: comms

External: N2YO · Heavens-Above · Gunter

§ Orbital elements

Epoch: 2026-09-20T04:18:47.642112Z

Period
109.37 min
Inclination
87.9146°
Eccentricity
0.0001870
Mean motion
13.16594069 rev/d
Perigee alt
1,196.3 km
Apogee alt
1,199.2 km
Semi-major
7,575.9 km
B*
5.1224e-5
RAAN
209.9210°
Arg perigee
67.3943°
Mean anomaly
292.7386°
Rev number
25,216

§ Raw data

ONEWEB-02701 48988U 21060X   26263.17971808  .00000032  00000+0  51224-4 0  99982 48988  87.9146 209.9210 0001870  67.3943 292.7386 13.16594069252162

JSON: /api/v1/satellites/48988 · /tle

For live sub-satellite position, see the globe view (requires WebGL).

§ Visibility from observer

Set your observer location to see the next 7 days of passes ≥ 10°. The values pass through the URL so the page stays shareable.

No JS? Fill the form by hand. The geolocation button needs JavaScript.